period_start,C,m1,H,J0,J1,J2,J3,J4,J5,JA,JB,JC,JD,JJ,JK,JN,#
2014-07-29 00:01:37,0.00,0.09,0.00,26.59,31.00,33.24,9.35,40.37,1003.95,2024.99,3388.99,3284.99,3565.00,500.09,484.52,12.50,0000 0000 0000 0000 000000
2014-07-29 00:06:38,0.00,0.09,0.00,26.61,31.00,33.25,9.34,40.33,1003.95,2024.99,3388.98,3284.99,3565.00,499.57,484.04,12.54,0000 0000 0000 0000 000000
2014-07-29 00:11:39,0.00,0.09,0.00,26.63,31.00,33.26,9.30,40.22,1003.94,2024.99,3388.95,3284.99,3565.00,499.51,484.15,12.58,0000 0000 0000 0000 000000
2014-07-29 00:16:40,0.00,0.09,0.00,26.64,31.00,33.25,9.37,40.43,1003.94,2024.98,3388.83,3284.95,3564.99,499.93,484.60,12.63,0000 0000 0000 0000 000000
2014-07-29 00:21:41,0.01,0.09,0.00,26.65,31.01,33.24,9.36,40.51,1003.95,2024.96,3388.40,3284.87,3564.93,499.91,484.43,12.67,0000 0000 0000 0000 000000
2014-07-29 00:26:43,0.01,0.09,0.00,26.68,31.02,33.26,9.30,40.27,1003.94,2024.98,3388.16,3284.86,3564.86,500.01,484.28,12.71,0000 0000 0000 0000 000000
2014-07-29 00:31:44,0.02,0.09,0.00,26.70,31.02,33.26,9.39,40.38,1003.94,2024.98,3388.02,3284.45,3564.52,500.39,484.71,12.75,0000 0000 0000 0000 000000
2014-07-29 00:36:45,0.01,0.09,0.00,26.72,31.02,33.26,9.33,40.44,1003.95,2024.96,3388.00,3284.16,3564.17,500.04,484.36,12.79,0000 0000 0000 0000 000000
2014-07-29 00:41:47,0.00,0.09,0.00,26.76,31.03,33.27,9.29,40.38,1003.94,2024.94,3387.98,3284.00,3564.00,499.77,484.31,12.83,0000 0000 0000 0000 000000
2014-07-29 00:46:48,0.00,0.09,0.00,26.78,31.05,33.27,9.34,40.61,1003.95,2024.96,3387.97,3284.01,3564.00,499.68,483.80,12.88,0000 0000 0000 0000 000000
2014-07-29 00:51:49,0.00,0.09,0.00,26.81,31.05,33.29,9.38,40.43,1003.94,2024.95,3387.97,3284.00,3564.00,500.23,484.15,12.92,0000 0000 0000 0000 000000
2014-07-29 00:56:50,-0.00,0.09,0.00,26.83,31.06,33.29,9.37,40.54,1003.95,2024.90,3387.63,3284.00,3563.98,500.35,484.59,12.96,0000 0000 0000 0000 000000
2014-07-29 01:01:51,-0.00,0.09,0.00,26.84,31.07,33.31,9.31,40.43,1003.97,2024.85,3387.43,3283.98,3563.92,499.51,483.74,13.00,0000 0000 0000 0000 000000
2014-07-29 01:06:52,0.01,0.09,0.00,26.85,31.08,33.32,9.35,40.53,1003.94,2024.72,3387.09,3283.89,3563.47,500.32,484.48,13.04,0000 0000 0000 0000 000000
2014-07-29 01:11:53,-0.02,0.09,0.00,26.87,31.10,33.33,9.32,40.60,1004.00,2024.39,3387.00,3283.45,3563.06,499.79,484.02,13.09,0000 0000 0000 0000 000000
2014-07-29 01:16:54,-0.01,0.09,0.00,26.90,31.11,33.34,9.30,40.45,1004.17,2024.15,3387.00,3283.14,3563.01,499.83,484.25,13.13,0000 0000 0000 0000 000000
2014-07-29 01:21:55,-0.01,0.09,0.00,26.95,31.12,33.36,9.29,40.50,1004.21,2024.08,3387.00,3283.03,3563.00,500.04,484.18,13.17,0000 0000 0000 0000 000000
2014-07-29 01:26:56,-0.00,0.09,0.00,26.96,31.14,33.37,9.30,40.52,1004.00,2024.04,3386.96,3283.00,3562.99,500.04,484.14,13.21,0000 0000 0000 0000 000000
2014-07-29 01:31:57,0.00,0.09,0.00,26.96,31.15,33.37,9.35,40.38,1003.98,2024.05,3386.85,3283.00,3562.97,500.25,484.32,13.25,0000 0000 0000 0000 000000
2014-07-29 01:36:58,0.01,0.09,0.00,27.01,31.17,33.39,9.37,40.54,1003.97,2024.02,3386.42,3282.99,3562.71,500.11,483.97,13.29,0000 0000 0000 0000 000000
2014-07-29 01:42:00,0.00,0.09,0.00,27.03,31.18,33.41,9.34,40.43,1003.96,2024.01,3386.14,3282.97,3562.32,500.14,484.06,13.34,0000 0000 0000 0000 000000
2014-07-29 01:47:01,0.00,0.09,0.00,27.07,31.20,33.42,9.29,40.37,1004.02,2024.01,3386.02,3282.87,3562.09,500.04,484.04,13.38,0000 0000 0000 0000 000000
2014-07-29 01:52:01,0.02,0.09,0.00,27.10,31.22,33.44,9.34,40.71,1003.96,2024.00,3386.00,3282.29,3562.00,500.05,483.92,13.42,0000 0000 0000 0000 000000
2014-07-29 01:57:03,0.00,0.09,0.00,27.13,31.24,33.46,9.37,40.46,1003.95,2024.00,3385.98,3282.07,3561.99,500.43,484.37,13.46,0000 0000 0000 0000 000000
2014-07-29 02:02:04,0.00,0.09,0.00,27.17,31.26,33.46,9.35,40.49,1003.93,2024.00,3385.89,3282.00,3561.84,500.10,483.96,13.50,0000 0000 0000 0000 000000
2014-07-29 02:07:05,0.02,0.09,0.00,27.21,31.27,33.49,9.27,40.50,1003.93,2023.99,3385.22,3281.98,3561.21,499.68,483.59,13.55,0000 0000 0000 0000 000000
2014-07-29 02:12:07,0.00,0.09,0.00,27.23,31.30,33.51,9.27,40.47,1003.92,2023.97,3385.01,3281.89,3561.01,499.55,483.07,13.59,0000 0000 0000 0000 000000
2014-07-29 02:17:08,0.01,0.09,0.00,27.27,31.32,33.54,9.37,40.46,1003.92,2023.94,3385.00,3281.38,3560.99,500.38,483.91,13.63,0000 0000 0000 0000 000000
2014-07-29 02:22:09,0.02,0.09,0.00,27.31,31.35,33.55,9.30,40.51,1003.92,2023.85,3384.80,3281.02,3560.41,499.98,483.37,13.67,0000 0000 0000 0000 000000
2014-07-29 02:27:10,-0.04,0.09,0.00,27.37,31.37,33.56,9.32,40.63,1003.92,2023.45,3384.21,3280.96,3560.03,499.86,483.17,13.71,0000 0000 0000 0000 000000
2014-07-29 02:32:11,-0.01,0.09,0.00,27.41,31.39,33.58,9.25,40.52,1003.90,2023.08,3384.00,3280.39,3559.97,499.86,483.18,13.75,0000 0000 0000 0000 000000
2014-07-29 02:37:12,0.01,0.09,0.00,27.47,31.41,33.61,9.31,40.52,1003.88,2023.00,3383.97,3280.03,3559.67,500.25,483.38,13.80,0000 0000 0000 0000 000000
2014-07-29 02:42:13,0.01,0.09,0.00,27.49,31.44,33.63,9.36,40.52,1003.81,2023.00,3383.80,3280.00,3559.12,500.31,483.28,13.84,0000 0000 0000 0000 000000
2014-07-29 02:47:14,0.01,0.09,0.00,27.54,31.47,33.65,9.32,40.48,1003.72,2023.00,3383.37,3279.99,3559.01,500.03,483.13,13.88,0000 0000 0000 0000 000000
2014-07-29 02:52:15,0.01,0.09,0.00,27.56,31.50,33.69,9.33,40.49,1003.76,2022.99,3383.04,3279.82,3558.98,499.84,482.88,13.92,0000 0000 0000 0000 000000
2014-07-29 02:57:16,0.03,0.09,0.00,27.57,31.53,33.73,9.37,40.51,1003.69,2022.97,3382.98,3279.14,3558.42,500.36,483.39,13.96,0000 0000 0000 0000 000000
2014-07-29 03:02:17,-0.00,0.09,0.00,27.59,31.56,33.76,9.25,40.46,1003.57,2022.93,3382.79,3279.02,3558.08,499.78,482.63,14.01,0000 0000 0000 0000 000000
2014-07-29 03:07:17,-0.00,0.09,0.00,27.63,31.59,33.78,9.33,40.45,1003.48,2022.82,3382.29,3278.99,3558.00,500.01,482.56,14.05,0000 0000 0000 0000 000000
2014-07-29 03:12:19,-0.02,0.09,0.00,27.67,31.61,33.82,9.32,40.53,1003.47,2022.54,3382.02,3278.89,3557.97,500.14,482.82,14.09,0000 0000 0000 0000 000000
2014-07-29 03:17:20,-0.01,0.09,0.00,27.69,31.64,33.84,9.28,40.44,1003.50,2022.10,3381.97,3278.18,3557.36,499.45,482.12,14.13,0000 0000 0000 0000 000000
2014-07-29 03:22:21,0.00,0.09,0.00,27.71,31.67,33.87,9.25,40.43,1003.51,2022.01,3381.56,3278.00,3557.01,499.65,482.37,14.17,0000 0000 0000 0000 000000
2014-07-29 03:27:22,0.01,0.09,0.00,27.74,31.70,33.90,9.32,40.31,1003.44,2022.00,3381.15,3277.97,3556.98,500.34,482.82,14.21,0000 0000 0000 0000 000000
2014-07-29 03:32:23,0.02,0.09,0.00,27.80,31.72,33.93,9.31,40.18,1003.45,2022.00,3380.99,3277.63,3556.55,500.34,482.78,14.26,0000 0000 0000 0000 000000
2014-07-29 03:37:24,0.01,0.10,0.00,27.82,31.75,33.95,9.31,40.42,1003.45,2021.98,3380.90,3277.08,3556.04,499.85,482.27,14.30,0000 0000 0000 0000 000000
2014-07-29 03:42:25,0.01,0.10,0.00,27.85,31.78,33.98,9.30,40.39,1003.44,2021.97,3380.36,3277.00,3556.00,500.10,482.52,14.34,0000 0000 0000 0000 000000
2014-07-29 03:47:26,-0.01,0.10,0.00,27.89,31.81,34.00,9.32,40.26,1003.44,2021.86,3380.03,3276.97,3555.90,500.22,482.37,14.38,0000 0000 0000 0000 000000
2014-07-29 03:52:27,-0.01,0.10,0.00,27.93,31.84,34.04,9.35,40.37,1003.43,2021.54,3379.99,3276.60,3555.35,500.37,482.49,14.42,0000 0000 0000 0000 000000
2014-07-29 03:57:28,-0.00,0.09,0.00,27.97,31.86,34.06,9.31,40.28,1003.43,2021.17,3379.53,3276.09,3555.01,500.02,481.90,14.47,0000 0000 0000 0000 000000
2014-07-29 04:02:29,0.00,0.09,0.00,28.01,31.90,34.10,9.26,40.47,1003.43,2021.02,3379.01,3276.00,3554.81,500.22,482.31,14.51,0000 0000 0000 0000 000000
2014-07-29 04:07:31,0.03,0.10,0.00,28.04,31.93,34.12,9.30,40.46,1003.43,2021.00,3378.90,3275.64,3554.10,500.20,482.24,14.55,0000 0000 0000 0000 000000
2014-07-29 04:12:32,0.03,0.10,0.00,28.08,31.96,34.15,9.30,40.65,1003.43,2021.00,3378.24,3275.08,3553.99,499.81,481.78,14.59,0000 0000 0000 0000 000000
2014-07-29 04:17:33,0.01,0.10,0.00,28.13,31.99,34.18,9.22,40.45,1003.43,2020.98,3378.01,3275.00,3553.66,499.60,481.47,14.63,0000 0000 0000 0000 000000
2014-07-29 04:22:34,0.01,0.10,0.00,28.18,32.02,34.21,9.32,40.52,1003.43,2020.92,3377.95,3274.83,3553.08,500.12,481.94,14.67,0000 0000 0000 0000 000000
2014-07-29 04:27:36,-0.02,0.10,0.00,28.18,32.05,34.24,9.30,40.48,1003.43,2020.57,3377.43,3274.17,3553.00,500.08,481.91,14.72,0000 0000 0000 0000 000000
2014-07-29 04:32:37,-0.02,0.10,0.00,28.20,32.08,34.28,9.26,40.44,1003.43,2020.19,3377.02,3274.01,3552.69,499.91,481.58,14.76,0000 0000 0000 0000 000000
2014-07-29 04:37:38,-0.00,0.10,0.00,28.26,32.11,34.31,9.32,40.51,1003.43,2020.02,3376.98,3273.96,3552.07,499.98,481.60,14.80,0000 0000 0000 0000 000000
2014-07-29 04:42:39,0.03,0.10,0.00,28.31,32.15,34.34,9.29,40.60,1003.42,2020.00,3376.59,3273.48,3552.00,499.96,481.55,14.84,0000 0000 0000 0000 000000
2014-07-29 04:47:40,0.01,0.10,0.00,28.34,32.18,34.37,9.28,40.50,1003.43,2020.00,3376.05,3273.02,3551.88,499.78,481.26,14.88,0000 0000 0000 0000 000000
2014-07-29 04:52:41,0.01,0.10,0.00,28.38,32.21,34.40,9.29,40.41,1003.37,2019.98,3376.00,3273.00,3551.14,500.24,481.65,14.93,0000 0000 0000 0000 000000
2014-07-29 04:57:42,0.01,0.10,0.00,28.42,32.24,34.44,9.31,40.31,1003.38,2019.92,3375.75,3272.70,3550.98,499.96,481.29,14.97,0000 0000 0000 0000 000000
2014-07-29 05:02:44,-0.02,0.10,0.00,28.45,32.27,34.47,9.27,40.34,1003.40,2019.57,3375.20,3272.18,3550.64,500.12,481.21,15.01,0000 0000 0000 0000 000000
2014-07-29 05:07:45,-0.02,0.10,0.00,28.47,32.31,34.50,9.29,40.26,1003.39,2019.15,3375.00,3272.00,3550.06,500.32,481.69,15.05,0000 0000 0000 0000 000000
2014-07-29 05:12:46,-0.00,0.10,0.00,28.49,32.34,34.53,9.32,40.32,1003.38,2019.02,3374.88,3271.93,3549.99,500.14,481.44,15.09,0000 0000 0000 0000 000000
2014-07-29 05:17:47,0.03,0.10,0.00,28.54,32.37,34.56,9.26,40.26,1003.33,2019.00,3374.28,3271.42,3549.75,499.96,481.17,15.13,0000 0000 0000 0000 000000
2014-07-29 05:22:48,0.01,0.10,0.00,28.56,32.40,34.59,9.23,40.23,1003.09,2019.00,3374.00,3271.03,3549.10,499.65,480.84,15.18,0000 0000 0000 0000 000000
2014-07-29 05:27:49,0.00,0.10,0.00,28.59,32.43,34.63,9.24,40.35,1003.00,2019.00,3373.90,3270.99,3548.99,499.90,480.86,15.22,0000 0000 0000 0000 000000
2014-07-29 05:32:51,0.01,0.10,0.00,28.62,32.46,34.66,9.24,40.38,1003.04,2018.92,3373.34,3270.67,3548.80,499.81,480.82,15.26,0000 0000 0000 0000 000000
2014-07-29 05:37:51,0.00,0.10,0.00,28.64,32.50,34.69,9.27,40.34,1002.99,2018.69,3373.02,3270.13,3548.17,500.19,481.10,15.30,0000 0000 0000 0000 000000
2014-07-29 05:42:52,-0.04,0.10,0.00,28.68,32.53,34.72,9.21,40.28,1002.99,2018.31,3372.99,3270.01,3548.00,500.01,480.66,15.34,0000 0000 0000 0000 000000
2014-07-29 05:47:54,-0.00,0.10,0.00,28.72,32.55,34.76,9.32,40.47,1002.99,2018.13,3372.83,3269.99,3547.98,499.62,480.44,15.39,0000 0000 0000 0000 000000
2014-07-29 05:52:55,0.01,0.10,0.00,28.74,32.58,34.78,9.29,40.38,1002.96,2018.04,3372.25,3269.84,3547.74,500.04,480.76,15.43,0000 0000 0000 0000 000000
2014-07-29 05:57:56,0.02,0.10,0.00,28.77,32.61,34.80,9.27,40.38,1002.96,2018.00,3372.01,3269.25,3547.11,500.11,480.71,15.47,0000 0000 0000 0000 000000
2014-07-29 06:02:57,0.00,0.10,0.00,28.82,32.63,34.83,9.29,40.51,1002.96,2017.99,3371.97,3269.01,3547.00,500.26,480.75,15.51,0000 0000 0000 0000 000000
2014-07-29 06:07:58,0.00,0.10,0.00,28.85,32.66,34.86,9.24,40.52,1002.96,2017.99,3371.77,3268.99,3546.85,500.17,480.70,15.55,0000 0000 0000 0000 000000
2014-07-29 06:13:00,0.02,0.10,0.00,28.89,32.69,34.89,9.26,40.52,1002.96,2017.96,3371.18,3268.75,3546.22,499.91,480.38,15.59,0000 0000 0000 0000 000000
2014-07-29 06:18:01,-0.01,0.10,0.00,28.91,32.72,34.92,9.18,40.49,1002.95,2017.79,3371.01,3268.23,3546.03,499.58,480.11,15.64,0000 0000 0000 0000 000000
2014-07-29 06:23:02,-0.05,0.10,0.00,28.96,32.76,34.95,9.18,40.58,1002.95,2017.21,3370.90,3268.00,3545.90,499.37,479.81,15.68,0000 0000 0000 0000 000000
2014-07-29 06:28:02,0.02,0.10,0.00,29.00,32.79,34.98,9.33,40.55,1002.95,2017.03,3370.37,3267.90,3545.36,500.11,480.60,15.72,0000 0000 0000 0000 000000
2014-07-29 06:33:03,0.02,0.10,0.00,29.02,32.82,35.02,9.31,40.59,1002.95,2017.00,3370.01,3267.31,3545.00,500.43,480.60,15.76,0000 0000 0000 0000 000000
2014-07-29 06:38:04,0.00,0.10,0.00,29.06,32.85,35.05,9.22,40.27,1002.95,2017.00,3369.90,3267.00,3544.88,499.92,480.11,15.80,0000 0000 0000 0000 000000
2014-07-29 06:43:06,0.02,0.10,0.00,29.09,32.88,35.08,9.22,40.25,1002.96,2017.00,3369.31,3266.97,3544.34,499.76,479.96,15.85,0000 0000 0000 0000 000000
2014-07-29 06:48:07,-0.01,0.10,0.00,29.14,32.91,35.12,9.19,40.36,1002.95,2016.85,3369.02,3266.45,3544.01,499.75,479.88,15.89,0000 0000 0000 0000 000000
2014-07-29 06:53:08,-0.02,0.10,0.00,29.17,32.94,35.15,9.17,40.30,1002.95,2016.54,3368.94,3266.01,3543.89,499.79,479.96,15.93,0000 0000 0000 0000 000000
2014-07-29 06:58:09,-0.00,0.10,0.00,29.20,32.97,35.18,9.19,40.25,1002.97,2016.19,3368.43,3266.00,3543.20,500.04,479.90,15.97,0000 0000 0000 0000 000000
2014-07-29 07:03:10,0.00,0.10,0.00,29.24,33.00,35.21,9.26,40.39,1002.97,2016.09,3368.03,3265.91,3543.01,499.89,479.71,16.01,0000 0000 0000 0000 000000
2014-07-29 07:08:11,0.02,0.10,0.00,29.27,33.03,35.23,9.26,40.35,1002.96,2016.02,3367.99,3265.30,3542.97,499.99,479.89,16.05,0000 0000 0000 0000 000000
2014-07-29 07:13:12,0.02,0.10,0.00,29.31,33.06,35.27,9.21,40.11,1002.96,2016.00,3367.61,3265.02,3542.35,500.10,479.86,16.10,0000 0000 0000 0000 000000
2014-07-29 07:18:14,0.01,0.10,0.00,29.34,33.10,35.30,9.25,40.21,1002.96,2016.00,3367.05,3264.98,3542.01,500.01,479.80,16.14,0000 0000 0000 0000 000000
2014-07-29 07:23:15,0.02,0.10,0.00,29.40,33.13,35.33,9.18,40.27,1002.97,2015.99,3366.98,3264.62,3541.94,499.60,479.47,16.18,0000 0000 0000 0000 000000
2014-07-29 07:28:16,0.02,0.11,0.00,29.43,33.16,35.36,9.24,40.17,1002.97,2015.93,3366.43,3264.04,3541.25,499.92,479.60,16.22,0000 0000 0000 0000 000000
2014-07-29 07:33:17,-0.01,0.11,0.00,29.46,33.19,35.40,9.25,40.29,1002.96,2015.72,3366.03,3264.00,3541.00,500.01,479.57,16.26,0000 0000 0000 0000 000000
2014-07-29 07:38:18,-0.05,0.10,0.00,29.50,33.23,35.43,9.28,40.25,1002.96,2015.29,3365.99,3263.91,3540.96,500.23,479.70,16.31,0000 0000 0000 0000 000000
2014-07-29 07:43:19,0.02,0.10,0.00,29.54,33.26,35.47,9.18,40.28,1002.97,2015.10,3365.76,3263.33,3540.43,499.44,478.91,16.35,0000 0000 0000 0000 000000
2014-07-29 07:48:20,0.01,0.10,0.00,29.57,33.29,35.49,9.21,40.17,1002.96,2015.01,3365.13,3263.01,3540.02,499.83,479.30,16.39,0000 0000 0000 0000 000000
2014-07-29 07:53:21,0.05,0.11,0.00,29.61,33.32,35.52,9.22,40.07,1003.00,2014.99,3364.54,3262.49,3539.33,499.89,479.30,16.43,0000 0000 0000 0000 000000
2014-07-29 07:58:22,0.11,0.11,0.00,29.64,33.35,35.55,9.22,40.33,1003.06,2014.93,3363.00,3260.91,3537.52,499.96,479.34,16.47,0000 0000 0000 0000 000000
2014-07-29 08:03:23,0.01,0.11,0.00,29.68,33.39,35.59,9.28,40.23,1003.07,2014.67,3362.02,3259.71,3536.03,500.20,479.56,16.52,0000 0000 0000 0000 000000
2014-07-29 08:08:25,-0.00,0.11,0.00,29.72,33.41,35.62,9.24,40.40,1003.05,2014.36,3361.98,3259.14,3535.98,500.32,479.59,16.56,0000 0000 0000 0000 000000
2014-07-29 08:13:26,-0.01,0.11,0.00,29.75,33.45,35.65,9.19,40.22,1003.01,2014.19,3361.69,3259.00,3535.55,499.85,479.06,16.60,0000 0000 0000 0000 000000
2014-07-29 08:18:27,0.00,0.11,0.00,29.80,33.48,35.68,9.20,40.19,1003.08,2014.01,3361.06,3258.91,3535.03,500.46,479.65,16.64,0000 0000 0000 0000 000000
2014-07-29 08:23:28,0.05,0.11,0.00,29.82,33.51,35.72,9.22,40.04,1003.04,2014.00,3360.42,3258.08,3534.38,499.88,479.08,16.68,0000 0000 0000 0000 000000
2014-07-29 08:28:28,0.07,0.12,0.00,29.83,33.55,35.75,9.24,40.02,1003.04,2013.99,3359.14,3257.08,3533.27,500.10,479.10,16.72,0000 0000 0000 0000 000000
2014-07-29 08:33:29,0.05,0.12,0.00,29.86,33.58,35.79,9.20,40.15,1003.06,2013.92,3358.08,3256.13,3532.20,499.76,478.63,16.77,0000 0000 0000 0000 000000
2014-07-29 08:38:30,-0.01,0.12,0.00,29.90,33.61,35.83,9.16,40.08,1003.18,2013.60,3357.27,3255.75,3531.81,499.64,478.54,16.81,0000 0000 0000 0000 000000
2014-07-29 08:43:31,-0.01,0.12,0.00,29.92,33.65,35.86,9.15,40.17,1003.18,2013.13,3356.79,3255.04,3531.06,499.49,478.32,16.85,0000 0000 0000 0000 000000
2014-07-29 08:48:32,0.04,0.12,0.00,29.96,33.68,35.89,9.18,40.22,1003.28,2013.02,3356.06,3254.48,3530.44,500.28,479.20,16.89,0000 0000 0000 0000 000000
2014-07-29 08:53:34,0.01,0.12,0.00,29.99,33.71,35.92,9.22,40.32,1003.31,2013.00,3355.84,3254.02,3530.00,500.02,478.93,16.93,0000 0000 0000 0000 000000
2014-07-29 08:58:35,0.03,0.12,0.00,30.03,33.74,35.95,9.23,40.20,1003.17,2013.00,3355.10,3253.90,3529.64,500.23,479.04,16.98,0000 0000 0000 0000 000000
2014-07-29 09:03:36,0.03,0.12,0.00,30.03,33.78,35.99,9.20,40.23,1003.33,2012.97,3354.69,3253.21,3528.99,499.70,478.49,17.02,0000 0000 0000 0000 000000
2014-07-29 09:08:37,-0.01,0.12,0.00,30.06,33.81,36.01,9.29,40.26,1003.41,2012.65,3354.02,3252.49,3528.19,500.09,478.81,17.06,0000 0000 0000 0000 000000
2014-07-29 09:13:38,-0.00,0.12,0.00,30.08,33.84,36.05,9.24,40.19,1003.43,2012.25,3353.48,3251.99,3527.67,500.14,478.88,17.10,0000 0000 0000 0000 000000
2014-07-29 09:18:39,0.01,0.12,0.00,30.11,33.87,36.06,9.10,40.29,1003.43,2012.04,3353.01,3251.51,3527.02,499.21,478.03,17.14,0000 0000 0000 0000 000000
2014-07-29 09:23:40,0.02,0.13,0.00,30.13,33.91,36.11,9.22,40.12,1003.43,2012.00,3352.59,3251.03,3526.80,500.39,479.01,17.19,0000 0000 0000 0000 000000
2014-07-29 09:28:41,0.02,0.13,0.00,30.16,33.93,36.13,9.17,40.22,1003.43,2012.00,3352.02,3250.87,3526.08,499.94,478.59,17.23,0000 0000 0000 0000 000000
2014-07-29 09:33:42,0.02,0.13,0.00,30.19,33.96,36.16,9.18,40.42,1003.43,2011.97,3351.86,3250.21,3525.98,499.59,478.19,17.27,0000 0000 0000 0000 000000
2014-07-29 09:38:44,0.02,0.13,0.00,30.22,33.99,36.19,9.20,40.17,1003.43,2011.90,3351.31,3250.01,3525.56,499.79,478.29,17.31,0000 0000 0000 0000 000000
2014-07-29 09:43:45,-0.05,0.13,0.00,30.23,34.02,36.21,9.14,40.12,1003.43,2011.35,3350.98,3249.78,3525.01,499.85,478.38,17.35,0000 0000 0000 0000 000000
2014-07-29 09:48:46,0.02,0.13,0.00,30.24,34.06,36.24,9.17,40.28,1003.43,2011.07,3350.50,3249.13,3524.69,500.07,478.61,17.39,0000 0000 0000 0000 000000
2014-07-29 09:53:47,0.01,0.13,0.00,30.27,34.08,36.26,9.16,40.15,1003.43,2011.00,3350.01,3248.99,3524.03,499.92,478.35,17.44,0000 0000 0000 0000 000000
2014-07-29 09:58:48,0.05,0.13,0.00,30.27,34.11,36.29,9.27,40.48,1003.43,2011.00,3349.41,3248.45,3523.63,500.31,478.86,17.48,0000 0000 0000 0000 000000
2014-07-29 10:03:49,0.03,0.13,0.00,30.29,34.14,36.32,9.22,40.57,1003.43,2011.00,3348.78,3247.71,3522.74,499.75,478.19,17.52,0000 0000 0000 0000 000000
2014-07-29 10:08:51,0.08,0.13,0.00,30.32,34.17,36.34,9.16,40.39,1003.43,2010.98,3347.75,3246.70,3521.68,499.89,478.33,17.56,0000 0000 0000 0000 000000
2014-07-29 10:13:52,0.03,0.14,0.00,30.36,34.20,36.38,9.19,40.62,1003.43,2010.89,3346.98,3245.87,3520.56,499.81,478.30,17.60,0000 0000 0000 0000 000000
2014-07-29 10:18:53,-0.01,0.14,0.00,30.37,34.23,36.41,9.19,40.38,1003.43,2010.49,3346.19,3245.12,3520.01,499.77,478.21,17.65,0000 0000 0000 0000 000000
2014-07-29 10:23:54,-0.01,0.14,0.00,30.40,34.26,36.43,9.28,40.55,1003.45,2010.15,3345.90,3244.95,3519.64,500.43,478.59,17.69,0000 0000 0000 0000 000000
2014-07-29 10:28:55,0.03,0.14,0.00,30.43,34.29,36.46,9.21,40.44,1003.44,2010.03,3345.11,3244.26,3519.03,500.10,478.24,17.73,0000 0000 0000 0000 000000
2014-07-29 10:33:57,0.03,0.14,0.00,30.44,34.32,36.49,9.20,40.48,1003.44,2010.00,3344.57,3243.97,3518.56,499.78,478.15,17.77,0000 0000 0000 0000 000000
2014-07-29 10:38:57,0.03,0.14,0.00,30.45,34.35,36.51,9.18,40.52,1003.47,2009.99,3343.93,3243.39,3518.01,499.94,478.34,17.81,0000 0000 0000 0000 000000
2014-07-29 10:43:58,0.05,0.14,0.00,30.49,34.38,36.55,9.22,40.75,1003.48,2009.99,3342.92,3242.73,3517.20,499.86,478.18,17.86,0000 0000 0000 0000 000000
2014-07-29 10:48:59,0.09,0.14,0.00,30.51,34.41,36.58,9.18,40.61,1003.46,2009.97,3341.43,3241.52,3515.93,500.01,478.19,17.90,0000 0000 0000 0000 000000
2014-07-29 10:54:01,0.10,0.15,0.00,30.54,34.44,36.61,9.22,40.60,1003.61,2009.87,3339.59,3239.90,3514.18,500.20,478.35,17.94,0000 0000 0000 0000 000000
2014-07-29 10:59:02,0.10,0.15,0.00,30.57,34.47,36.64,9.22,40.65,1003.81,2009.56,3337.38,3237.93,3512.03,499.90,478.03,17.98,0000 0000 0000 0000 000000
2014-07-29 11:04:03,0.09,0.16,0.00,30.58,34.50,36.67,9.20,40.50,1003.91,2009.17,3335.31,3235.91,3509.83,499.82,478.02,18.02,0000 0000 0000 0000 000000
2014-07-29 11:09:04,0.12,0.16,0.00,30.61,34.53,36.70,9.27,40.48,1003.87,2009.02,3333.20,3233.94,3507.68,500.08,478.27,18.07,0000 0000 0000 0000 000000
2014-07-29 11:14:05,0.13,0.17,0.00,30.66,34.56,36.72,9.23,40.47,1003.86,2009.00,3331.05,3232.01,3505.62,500.03,478.19,18.11,0000 0000 0000 0000 000000
2014-07-29 11:19:06,0.12,0.17,0.00,30.69,34.58,36.75,9.16,40.41,1003.89,2009.00,3328.99,3230.08,3503.57,499.70,477.91,18.15,0000 0000 0000 0000 000000
2014-07-29 11:24:08,0.11,0.18,0.00,30.70,34.61,36.77,9.20,40.36,1003.89,2008.98,3327.13,3228.39,3501.68,500.11,478.34,18.19,0000 0000 0000 0000 000000
2014-07-29 11:29:09,0.11,0.18,0.00,30.71,34.64,36.79,9.16,40.27,1003.90,2008.88,3325.19,3226.65,3499.79,499.90,477.95,18.23,0000 0000 0000 0000 000000
2014-07-29 11:34:10,0.08,0.19,0.00,30.72,34.66,36.81,9.22,39.98,1003.91,2008.49,3323.17,3224.80,3497.71,499.95,477.98,18.27,0000 0000 0000 0000 000000
2014-07-29 11:39:11,0.12,0.19,0.00,30.72,34.69,36.83,9.24,40.04,1003.91,2008.20,3320.80,3222.79,3495.59,499.89,477.89,18.32,0000 0000 0000 0000 000000
2014-07-29 11:44:13,0.10,0.20,0.00,30.73,34.71,36.85,9.24,40.08,1003.91,2008.05,3318.82,3221.11,3493.72,500.65,478.51,18.36,0000 0000 0000 0000 000000
2014-07-29 11:49:14,0.11,0.20,0.00,30.75,34.73,36.89,9.17,40.03,1003.92,2008.00,3316.88,3219.55,3491.98,500.14,478.11,18.40,0000 0000 0000 0000 000000
2014-07-29 11:54:15,0.10,0.21,0.00,30.75,34.75,36.90,9.19,39.97,1003.92,2008.00,3315.02,3217.99,3490.35,499.93,477.82,18.44,0000 0000 0000 0000 000000
2014-07-29 11:59:16,0.10,0.21,0.00,30.76,34.77,36.92,9.20,40.04,1003.92,2008.00,3313.29,3216.55,3488.75,499.62,477.68,18.48,0000 0000 0000 0000 000000
2014-07-29 12:04:18,0.15,0.22,0.00,30.75,34.79,36.94,9.22,40.00,1003.92,2007.99,3310.71,3214.61,3486.66,499.87,477.85,18.53,0000 0000 0000 0000 000000
2014-07-29 12:09:19,0.10,0.22,0.00,30.74,34.80,36.96,9.16,40.20,1003.92,2007.97,3308.71,3212.97,3484.85,499.73,477.84,18.57,0000 0000 0000 0000 000000
2014-07-29 12:14:20,0.09,0.22,0.00,30.73,34.82,36.98,9.21,40.26,1003.92,2007.89,3307.01,3211.58,3483.36,500.02,477.94,18.61,0000 0000 0000 0000 000000
2014-07-29 12:19:22,0.08,0.23,0.00,30.70,34.83,36.99,9.15,40.38,1003.92,2007.80,3305.44,3210.20,3481.83,499.90,477.98,18.65,0000 0000 0000 0000 000000
2014-07-29 12:24:23,0.08,0.23,0.00,30.70,34.85,37.01,9.19,40.18,1003.92,2007.72,3303.97,3208.97,3480.55,500.29,478.25,18.69,0000 0000 0000 0000 000000
2014-07-29 12:29:24,0.02,0.23,0.00,30.70,34.85,37.01,9.27,40.26,1003.90,2007.33,3302.60,3207.87,3479.29,500.56,478.49,18.74,0000 0000 0000 0000 000000
2014-07-29 12:34:26,0.06,0.24,0.00,30.68,34.87,37.03,9.22,40.17,1003.88,2007.15,3301.49,3206.90,3478.21,500.18,478.17,18.78,0000 0000 0000 0000 000000
2014-07-29 12:39:27,0.07,0.24,0.00,30.66,34.87,37.03,9.23,40.27,1003.87,2007.05,3300.12,3205.82,3476.99,500.35,478.35,18.82,0000 0000 0000 0000 000000
2014-07-29 12:44:28,0.08,0.24,0.00,30.66,34.88,37.03,9.21,40.38,1003.85,2007.00,3298.85,3204.72,3475.73,500.28,478.21,18.86,0000 0000 0000 0000 000000
2014-07-29 12:49:29,0.07,0.24,0.00,30.66,34.90,37.05,9.16,40.31,1003.90,2007.00,3297.57,3203.71,3474.65,499.85,477.96,18.90,0000 0000 0000 0000 000000
2014-07-29 12:54:30,0.08,0.25,0.00,30.66,34.90,37.06,9.15,40.33,1003.91,2007.00,3296.15,3202.57,3473.37,499.89,478.05,18.94,0000 0000 0000 0000 000000
2014-07-29 12:59:32,0.06,0.25,0.00,30.65,34.90,37.06,9.25,40.48,1003.91,2007.00,3294.99,3201.66,3472.29,500.15,478.27,18.99,0000 0000 0000 0000 000000